FW1207 Weather Reports


Display with metric or nautical units.
time (UTC)temp
F
wind
direction
speed
MPH
gust
MPH
rain 1hr
in
rain 24hr
in
rain mn
in
humidity
%
barometer
mb
20180822031106 68 109 0.0 0.0 0.00 0.00 0.00 91 1013.2
20180822030608 68 109 0.0 0.0 0.00 0.00 0.00 90 1013.2
20180822030109 68 109 0.0 0.0 0.00 0.00 0.00 90 1013.2
20180822025607 68 109 0.0 0.0 0.00 0.00 0.00 91 1012.9
20180822025108 68 109 0.0 0.0 0.00 0.00 0.00 91 1013.2
20180822024606 68 109 0.0 0.0 0.00 0.00 0.00 90 1013.2
20180822024105 68 109 0.0 0.0 0.00 0.00 0.00 90 1013.2
20180822023609 68 109 0.0 0.0 0.00 0.00 0.00 90 1012.9
20180822023108 68 109 0.0 0.0 0.00 0.00 0.00 89 1012.9
20180822022608 68 109 0.0 0.0 0.00 0.00 0.00 88 1012.9
20180822022109 69 109 0.0 0.0 0.00 0.00 0.00 87 1012.5
20180822021610 69 109 0.0 0.0 0.00 0.00 0.00 86 1012.5
20180822021107 69 109 0.0 0.0 0.00 0.00 0.00 85 1012.5
20180822020610 69 109 0.0 0.0 0.00 0.00 0.00 84 1012.2
20180822020107 70 109 0.0 0.0 0.00 0.00 0.00 84 1012.2
20180822015607 70 109 0.0 0.0 0.00 0.00 0.00 84 1012.2
20180822015109 70 109 0.0 0.0 0.00 0.00 0.00 84 1012.2
20180822014609 70 109 0.0 0.0 0.00 0.00 0.00 83 1012.2
20180822014107 70 109 0.0 0.0 0.00 0.00 0.00 82 1011.9
20180822013610 70 109 0.0 0.0 0.00 0.00 0.00 82 1012.2
20180822013110 71 109 0.0 0.0 0.00 0.00 0.00 82 1012.2
20180822012609 71 109 0.0 0.0 0.00 0.00 0.00 82 1012.2
20180822012111 71 109 0.0 0.0 0.00 0.00 0.00 81 1011.9
20180822011609 71 109 0.0 0.0 0.00 0.00 0.00 80 1012.2
20180822011108 71 109 0.0 0.0 0.00 0.00 0.00 80 1011.9
20180822010610 72 109 0.0 0.0 0.00 0.00 0.00 80 1012.2
20180822010109 72 109 0.0 0.0 0.00 0.00 0.00 79 1011.9
20180822005607 72 109 0.0 0.0 0.00 0.00 0.00 80 1011.9
20180822005111 73 109 0.0 0.0 0.00 0.00 0.00 79 1011.9
20180822004610 73 109 0.0 0.0 0.00 0.00 0.00 78 1011.9
20180822004108 73 109 0.0 0.0 0.00 0.00 0.00 77 1011.9
20180822003613 74 109 0.0 0.0 0.00 0.00 0.00 76 1011.9
20180822003109 74 109 0.0 0.0 0.00 0.00 0.00 76 1011.5
20180822002607 75 109 0.0 0.0 0.00 0.00 0.00 75 1011.9
20180822002111 75 109 0.0 0.0 0.00 0.00 0.00 74 1011.9
20180822001610 75 109 0.0 0.0 0.00 0.00 0.00 73 1011.9
20180822001107 76 109 0.0 0.0 0.00 0.00 0.00 72 1011.9
20180822000609 76 109 0.0 0.0 0.00 0.00 0.00 71 1011.5
20180822000109 76 148 1.0 1.0 0.00 0.00 0.00 71 1011.5
20180821235607 76 173 1.0 1.0 0.00 0.00 0.00 70 1011.9
20180821235109 77 23 1.0 1.0 0.00 0.00 0.00 71 1011.9
20180821234607 77 83 0.0 0.0 0.00 0.00 0.00 70 1011.9
20180821234109 77 347 2.0 2.0 0.00 0.00 0.00 69 1011.9
20180821233611 77 44 0.0 1.0 0.00 0.00 0.00 68 1012.2
20180821233109 77 146 1.0 2.0 0.00 0.00 0.00 69 1011.9
20180821232609 77 173 0.0 0.0 0.00 0.00 0.00 70 1012.2
20180821232110 78 163 0.0 1.0 0.00 0.00 0.00 69 1012.2
20180821231610 78 42 1.0 1.0 0.00 0.00 0.00 69 1012.2
20180821231108 78 119 1.0 1.0 0.00 0.00 0.00 67 1012.2
20180821230612 79 5 2.0 2.0 0.00 0.00 0.00 67 1012.2
20180821230110 80 87 0.0 0.0 0.00 0.00 0.00 66 1012.2
20180821225607 80 163 0.0 0.0 0.00 0.00 0.00 65 1012.2
20180821225105 80 44 0.0 0.0 0.00 0.00 0.00 65 1012.2
20180821224609 80 127 1.0 2.0 0.00 0.00 0.00 64 1012.2
20180821224107 80 128 1.0 2.0 0.00 0.00 0.00 65 1012.2
20180821223610 79 165 0.0 1.0 0.00 0.00 0.00 66 1012.2
20180821223105 79 104 0.0 1.0 0.00 0.00 0.00 65 1012.2
20180821222609 81 153 0.0 0.0 0.00 0.00 0.00 66 1012.2
20180821222111 81 189 0.0 1.0 0.00 0.00 0.00 67 1012.2
20180821221611 81 58 1.0 2.0 0.00 0.00 0.00 62 1012.2
20180821221239 81 177 0.0 0.0 0.00 0.00 0.00 63 1012.2
20180821211110 82 209 0.0 0.0 0.00 0.00 0.00 64 1011.5
20180821210611 82 49 0.0 0.0 0.00 0.00 0.00 66 1011.5
20180821210110 81 67 2.0 2.0 0.00 0.00 0.00 65 1012.2
20180821205610 82 20 2.0 2.0 0.00 0.00 0.00 64 1012.2
20180821205110 82 234 0.0 0.0 0.00 0.00 0.00 65 1011.9
20180821204613 82 344 0.0 1.0 0.00 0.00 0.00 65 1011.9
20180821204109 81 142 2.0 2.0 0.00 0.00 0.00 65 1011.9
20180821203636 81 230 1.0 1.0 0.00 0.00 0.00 66 1011.9
20180821203112 80 179 0.0 1.0 0.00 0.00 0.00 64 1011.9
20180821202610 80 38 1.0 2.0 0.00 0.00 0.00 67 1011.9
20180821202110 79 5 1.0 1.0 0.00 0.00 0.00 67 1011.9
20180821201609 78 196 2.0 2.0 0.00 0.00 0.00 70 1011.9
20180821201109 78 151 0.0 0.0 0.00 0.00 0.00 71 1011.9
20180821200610 79 32 0.0 1.0 0.00 0.00 0.00 69 1012.2
20180821200111 79 17 0.0 0.0 0.00 0.00 0.00 69 1011.9
20180821195608 79 64 1.0 1.0 0.00 0.00 0.00 70 1011.9
20180821195110 78 175 0.0 1.0 0.00 0.00 0.00 70 1011.9
20180821194610 78 116 1.0 2.0 0.00 0.00 0.00 71 1011.9
20180821194109 78 69 1.0 2.0 0.00 0.00 0.00 71 1012.2
20180821193631 80 238 1.0 2.0 0.00 0.00 0.00 70 1012.2
20180821193110 79 232 1.0 1.0 0.00 0.00 0.00 70 1012.2
20180821192609 77 88 0.0 0.0 0.00 0.00 0.00 74 1012.2
20180821192112 77 23 1.0 1.0 0.00 0.00 0.00 76 1012.2
20180821191609 78 115 0.0 1.0 0.00 0.00 0.00 75 1011.9
20180821191110 78 100 1.0 1.0 0.00 0.00 0.00 74 1011.9
20180821190612 76 222 1.0 1.0 0.00 0.00 0.00 75 1011.9
20180821190111 76 94 0.0 1.0 0.00 0.00 0.00 77 1012.2
20180821185608 76 167 0.0 1.0 0.00 0.00 0.00 77 1012.2
20180821185111 76 136 1.0 2.0 0.00 0.00 0.00 75 1012.2
20180821184608 75 134 0.0 0.0 0.00 0.00 0.00 80 1012.2
20180821184108 75 100 1.0 1.0 0.00 0.00 0.00 78 1012.2
20180821183612 75 105 2.0 2.0 0.00 0.00 0.00 76 1012.2
20180821183108 75 13 2.0 2.0 0.00 0.00 0.00 77 1011.9
20180821182608 75 81 1.0 1.0 0.00 0.00 0.00 77 1011.9
20180821182110 75 52 1.0 1.0 0.00 0.00 0.00 77 1011.9
20180821181608 74 87 1.0 2.0 0.00 0.01 0.00 77 1011.9
20180821181108 73 118 1.0 2.0 0.00 0.02 0.00 79 1011.9
20180821180612 74 30 1.0 2.0 0.00 0.02 0.00 81 1012.2
20180821180111 73 84 1.0 1.0 0.00 0.02 0.00 81 1011.9
20180821175607 74 156 1.0 1.0 0.00 0.02 0.00 80 1011.9
20180821175109 74 230 1.0 1.0 0.00 0.02 0.00 82 1011.9
20180821174609 73 149 0.0 0.0 0.00 0.02 0.00 82 1011.9
20180821174109 73 72 0.0 0.0 0.00 0.04 0.00 81 1011.9
20180821173609 74 100 1.0 1.0 0.00 0.04 0.00 81 1011.9
20180821173107 73 117 0.0 1.0 0.00 0.05 0.00 82 1011.5
20180821172738 73 24 0.0 1.0 0.00 0.05 0.00 84 1011.9
20180821050603 68 218 1.0 1.0 0.00 0.05 0.00 88 1007.5
20180821045600 67 222 1.0 1.0 0.00 0.05 0.05 90 1007.8
20180821045104 67 235 3.0 3.0 0.00 0.05 0.05 89 1007.8
20180821044602 67 236 3.0 3.0 0.00 0.05 0.05 90 1007.5
20180821044058 67 247 3.0 5.0 0.00 0.05 0.05 90 1007.8
20180821043602 67 226 1.0 1.0 0.00 0.05 0.05 90 1007.8
20180821043103 67 205 1.0 1.0 0.00 0.05 0.05 90 1007.8
20180821042603 67 226 2.0 2.0 0.00 0.05 0.05 90 1007.5
20180821042101 67 209 2.0 3.0 0.00 0.05 0.05 90 1007.5
20180821041602 67 224 3.0 3.0 0.00 0.05 0.05 91 1007.5
20180821041100 67 226 2.0 2.0 0.00 0.05 0.05 92 1007.5
20180821040604 67 242 1.0 2.0 0.00 0.05 0.05 92 1007.5
20180821040103 67 254 2.0 2.0 0.00 0.05 0.05 91 1007.5
20180821035604 67 228 2.0 2.0 0.00 0.05 0.05 91 1007.1
20180821035106 67 254 1.0 2.0 0.00 0.05 0.05 91 1007.5
20180821034605 67 229 2.0 3.0 0.00 0.05 0.05 91 1007.1
20180821034108 67 272 2.0 2.0 0.00 0.05 0.05 90 1007.1
20180821033606 67 275 3.0 3.0 0.00 0.05 0.05 90 1007.1
20180821033104 68 250 1.0 1.0 0.00 0.05 0.05 90 1007.1
20180821032603 68 249 3.0 6.0 0.00 0.05 0.05 90 1007.5
20180821032107 68 248 2.0 2.0 0.00 0.05 0.05 89 1007.1
20180821031608 68 222 2.0 2.0 0.00 0.05 0.05 89 1007.1